Data start date =,12/27/1964
Data end date/time =,5/5/2024 12:00
""
""
Date/Time,ChippewaDiv_Dam
,Flow-Out
UTC,cfs
,Ave
12/28/1964 12:00,92
12/29/1964 12:00,92
12/30/1964 12:00,92
12/31/1964 12:00,92
1/1/1965 12:00,92
1/2/1965 12:00,92
1/3/1965 12:00,92
1/4/1965 12:00,92
1/5/1965 12:00,92
1/6/1965 12:00,92
1/7/1965 12:00,92
1/8/1965 12:00,92
1/9/1965 12:00,92
1/10/1965 12:00,92
1/11/1965 12:00,92
1/12/1965 12:00,92
1/13/1965 12:00,92
1/14/1965 12:00,92
1/15/1965 12:00,92
1/16/1965 12:00,92
1/17/1965 12:00,92
1/18/1965 12:00,92
1/19/1965 12:00,92
1/20/1965 12:00,92
1/21/1965 12:00,93
1/22/1965 12:00,93
1/23/1965 12:00,95
1/24/1965 12:00,95
1/25/1965 12:00,95
1/26/1965 12:00,98
1/27/1965 12:00,100
1/28/1965 12:00,100
1/29/1965 12:00,100
1/30/1965 12:00,100
1/31/1965 12:00,100
2/1/1965 12:00,100
2/2/1965 12:00,100
2/3/1965 12:00,103
2/4/1965 12:00,103
2/5/1965 12:00,103
2/6/1965 12:00,103
2/7/1965 12:00,103
2/8/1965 12:00,103
2/9/1965 12:00,103
2/10/1965 12:00,104
2/11/1965 12:00,103
2/12/1965 12:00,103
2/13/1965 12:00,120
2/14/1965 12:00,120
2/15/1965 12:00,130
2/16/1965 12:00,130
2/17/1965 12:00,139
2/18/1965 12:00,140
2/19/1965 12:00,140
2/20/1965 12:00,140
2/21/1965 12:00,150
2/22/1965 12:00,150
2/23/1965 12:00,160
2/24/1965 12:00,166
2/25/1965 12:00,170
2/26/1965 12:00,170
2/27/1965 12:00,170
2/28/1965 12:00,170
3/1/1965 12:00,170
3/2/1965 12:00,170
3/3/1965 12:00,167
3/4/1965 12:00,170
3/5/1965 12:00,170
3/6/1965 12:00,170
3/7/1965 12:00,170
3/8/1965 12:00,170
3/9/1965 12:00,170
3/10/1965 12:00,174
3/11/1965 12:00,170
3/12/1965 12:00,180
3/13/1965 12:00,180
3/14/1965 12:00,180
3/15/1965 12:00,180
3/16/1965 12:00,180
3/17/1965 12:00,188
3/18/1965 12:00,190
3/19/1965 12:00,190
3/20/1965 12:00,200
3/21/1965 12:00,220
3/22/1965 12:00,230
3/23/1965 12:00,240
3/24/1965 12:00,245
3/25/1965 12:00,250
3/26/1965 12:00,250
3/27/1965 12:00,250
3/28/1965 12:00,250
3/29/1965 12:00,250
3/30/1965 12:00,250
3/31/1965 12:00,258
4/1/1965 12:00,260
4/2/1965 12:00,260
4/3/1965 12:00,260
4/4/1965 12:00,260
4/5/1965 12:00,260
4/6/1965 12:00,260
4/7/1965 12:00,260
4/8/1965 12:00,260
4/9/1965 12:00,280
4/10/1965 12:00,280
4/11/1965 12:00,300
4/12/1965 12:00,320
4/13/1965 12:00,340
4/14/1965 12:00,359
4/15/1965 12:00,360
4/16/1965 12:00,360
4/17/1965 12:00,365
4/18/1965 12:00,1050
4/19/1965 12:00,1270
4/20/1965 12:00,1800
4/21/1965 12:00,3140
4/22/1965 12:00,3300
4/23/1965 12:00,3140
4/24/1965 12:00,3500
4/25/1965 12:00,3060
4/26/1965 12:00,2620
4/27/1965 12:00,2290
4/28/1965 12:00,1710
4/29/1965 12:00,1310
4/30/1965 12:00,880
5/1/1965 12:00,700
5/2/1965 12:00,580
5/3/1965 12:00,500
5/4/1965 12:00,440
5/5/1965 12:00,760
5/6/1965 12:00,880
5/7/1965 12:00,985
5/8/1965 12:00,985
5/9/1965 12:00,985
5/10/1965 12:00,970
5/11/1965 12:00,955
5/12/1965 12:00,925
5/13/1965 12:00,900
5/14/1965 12:00,900
5/15/1965 12:00,880
5/16/1965 12:00,865
5/17/1965 12:00,850
5/18/1965 12:00,850
5/19/1965 12:00,850
5/20/1965 12:00,900
5/21/1965 12:00,900
5/22/1965 12:00,880
5/23/1965 12:00,865
5/24/1965 12:00,844
5/25/1965 12:00,820
5/26/1965 12:00,805
5/27/1965 12:00,900
5/28/1965 12:00,900
5/29/1965 12:00,940
5/30/1965 12:00,874
5/31/1965 12:00,850
6/1/1965 12:00,811
6/2/1965 12:00,856
6/3/1965 12:00,900
6/4/1965 12:00,1490
6/5/1965 12:00,1430
6/6/1965 12:00,1270
6/7/1965 12:00,850
6/8/1965 12:00,570
6/9/1965 12:00,880
6/10/1965 12:00,1140
6/11/1965 12:00,1090
6/12/1965 12:00,1030
6/13/1965 12:00,1030
6/14/1965 12:00,970
6/15/1965 12:00,1270
6/16/1965 12:00,985
6/17/1965 12:00,925
6/18/1965 12:00,1360
6/19/1965 12:00,1140
6/20/1965 12:00,1000
6/21/1965 12:00,940
6/22/1965 12:00,880
6/23/1965 12:00,955
6/24/1965 12:00,1000
6/25/1965 12:00,985
6/26/1965 12:00,970
6/27/1965 12:00,940
6/28/1965 12:00,895
6/29/1965 12:00,850
6/30/1965 12:00,820
7/1/1965 12:00,800
7/2/1965 12:00,800
7/3/1965 12:00,730
7/4/1965 12:00,709
7/5/1965 12:00,706
7/6/1965 12:00,684
7/7/1965 12:00,664
7/8/1965 12:00,650
7/9/1965 12:00,650
7/10/1965 12:00,648
7/11/1965 12:00,630
7/12/1965 12:00,610
7/13/1965 12:00,592
7/14/1965 12:00,590
7/15/1965 12:00,570
7/16/1965 12:00,560
7/17/1965 12:00,560
7/18/1965 12:00,556
7/19/1965 12:00,594
7/20/1965 12:00,600
7/21/1965 12:00,634
7/22/1965 12:00,600
7/23/1965 12:00,600
7/24/1965 12:00,620
7/25/1965 12:00,630
7/26/1965 12:00,640
7/27/1965 12:00,630
7/28/1965 12:00,620
7/29/1965 12:00,594
7/30/1965 12:00,568
7/31/1965 12:00,546
8/1/1965 12:00,538
8/2/1965 12:00,520
8/3/1965 12:00,510
8/4/1965 12:00,500
8/5/1965 12:00,485
8/6/1965 12:00,477
8/7/1965 12:00,462
8/8/1965 12:00,455
8/9/1965 12:00,432
8/10/1965 12:00,422
8/11/1965 12:00,410
8/12/1965 12:00,395
8/13/1965 12:00,387
8/14/1965 12:00,380
8/15/1965 12:00,377
8/16/1965 12:00,377
8/17/1965 12:00,350
8/18/1965 12:00,343
8/19/1965 12:00,336
8/20/1965 12:00,343
8/21/1965 12:00,357
8/22/1965 12:00,357
8/23/1965 12:00,350
8/24/1965 12:00,336
8/25/1965 12:00,322
8/26/1965 12:00,315
8/27/1965 12:00,309
8/28/1965 12:00,302
8/29/1965 12:00,295
8/30/1965 12:00,288
8/31/1965 12:00,281
9/1/1965 12:00,275
9/2/1965 12:00,268
9/3/1965 12:00,261
9/4/1965 12:00,254
9/5/1965 12:00,247
9/6/1965 12:00,268
9/7/1965 12:00,275
9/8/1965 12:00,295
9/9/1965 12:00,300
9/10/1965 12:00,280
9/11/1965 12:00,275
9/12/1965 12:00,275
9/13/1965 12:00,275
9/14/1965 12:00,275
9/15/1965 12:00,265
9/16/1965 12:00,264
9/17/1965 12:00,261
9/18/1965 12:00,258
9/19/1965 12:00,254
9/20/1965 12:00,261
9/21/1965 12:00,261
9/22/1965 12:00,261
9/23/1965 12:00,261
9/24/1965 12:00,260
9/25/1965 12:00,254
9/26/1965 12:00,251
9/27/1965 12:00,251
9/28/1965 12:00,254
9/29/1965 12:00,265
9/30/1965 12:00,273
10/1/1965 12:00,281
10/2/1965 12:00,288
10/3/1965 12:00,309
10/4/1965 12:00,302
10/5/1965 12:00,302
10/6/1965 12:00,302
10/7/1965 12:00,309
10/8/1965 12:00,302
10/9/1965 12:00,295
10/10/1965 12:00,302
10/11/1965 12:00,305
10/12/1965 12:00,306
10/13/1965 12:00,580
10/14/1965 12:00,580
10/15/1965 12:00,552
10/16/1965 12:00,550
10/17/1965 12:00,550
10/18/1965 12:00,550
10/19/1965 12:00,546
10/20/1965 12:00,560
10/21/1965 12:00,520
10/22/1965 12:00,520
10/23/1965 12:00,520
10/24/1965 12:00,516
10/25/1965 12:00,510
10/26/1965 12:00,492
10/27/1965 12:00,485
10/28/1965 12:00,477
10/29/1965 12:00,477
10/30/1965 12:00,477
10/31/1965 12:00,530
11/1/1965 12:00,544
11/2/1965 12:00,530
11/3/1965 12:00,530
11/4/1965 12:00,520
11/5/1965 12:00,510
11/6/1965 12:00,500
11/7/1965 12:00,500
11/8/1965 12:00,500
11/9/1965 12:00,500
11/10/1965 12:00,500
11/11/1965 12:00,520
11/12/1965 12:00,520
11/13/1965 12:00,520
11/14/1965 12:00,520
11/15/1965 12:00,520
11/16/1965 12:00,510
11/17/1965 12:00,492
11/18/1965 12:00,485
11/19/1965 12:00,477
11/20/1965 12:00,477
11/21/1965 12:00,462
11/22/1965 12:00,455
11/23/1965 12:00,447
11/24/1965 12:00,440
11/25/1965 12:00,447
11/26/1965 12:00,447
11/27/1965 12:00,440
11/28/1965 12:00,437
11/29/1965 12:00,417
11/30/1965 12:00,387
12/1/1965 12:00,380
12/2/1965 12:00,372
12/3/1965 12:00,380
12/4/1965 12:00,380
12/5/1965 12:00,380
12/6/1965 12:00,380
12/7/1965 12:00,380
12/8/1965 12:00,380
12/9/1965 12:00,387
12/10/1965 12:00,410
12/11/1965 12:00,440
12/12/1965 12:00,447
12/13/1965 12:00,455
12/14/1965 12:00,485
12/15/1965 12:00,500
12/16/1965 12:00,417
12/17/1965 12:00,417
12/18/1965 12:00,414
12/19/1965 12:00,410
12/20/1965 12:00,410
12/21/1965 12:00,410
12/22/1965 12:00,410
12/23/1965 12:00,410
12/24/1965 12:00,432
12/25/1965 12:00,530
12/26/1965 12:00,520
12/27/1965 12:00,510
12/28/1965 12:00,500
12/29/1965 12:00,492
12/30/1965 12:00,485
12/31/1965 12:00,477
1/1/1966 12:00,470
1/2/1966 12:00,462
1/3/1966 12:00,455
1/4/1966 12:00,447
1/5/1966 12:00,447
1/6/1966 12:00,432
1/7/1966 12:00,425
1/8/1966 12:00,387
1/9/1966 12:00,387
1/10/1966 12:00,387
1/11/1966 12:00,402
1/12/1966 12:00,395
1/13/1966 12:00,343
1/14/1966 12:00,343
1/15/1966 12:00,343
1/16/1966 12:00,350
1/17/1966 12:00,357
1/18/1966 12:00,350
1/19/1966 12:00,350
1/20/1966 12:00,357
1/21/1966 12:00,372
1/22/1966 12:00,365
1/23/1966 12:00,350
1/24/1966 12:00,343
1/25/1966 12:00,336
1/26/1966 12:00,336
1/27/1966 12:00,322
1/28/1966 12:00,315
1/29/1966 12:00,315
1/30/1966 12:00,315
1/31/1966 12:00,315
2/1/1966 12:00,309
2/2/1966 12:00,295
2/3/1966 12:00,288
2/4/1966 12:00,288
2/5/1966 12:00,288
2/6/1966 12:00,302
2/7/1966 12:00,315
2/8/1966 12:00,315
2/9/1966 12:00,650
2/10/1966 12:00,1100
2/11/1966 12:00,1270
2/12/1966 12:00,1170
2/13/1966 12:00,1070
2/14/1966 12:00,865
2/15/1966 12:00,790
2/16/1966 12:00,790
2/17/1966 12:00,760
2/18/1966 12:00,715
2/19/1966 12:00,690
2/20/1966 12:00,610
2/21/1966 12:00,580
2/22/1966 12:00,560
2/23/1966 12:00,540
2/24/1966 12:00,520
2/25/1966 12:00,492
2/26/1966 12:00,492
2/27/1966 12:00,500
2/28/1966 12:00,510
3/1/1966 12:00,536
3/2/1966 12:00,1070
3/3/1966 12:00,1060
3/4/1966 12:00,1550
3/5/1966 12:00,1600
3/6/1966 12:00,1200
3/7/1966 12:00,925
3/8/1966 12:00,820
3/9/1966 12:00,844
3/10/1966 12:00,1300
3/11/1966 12:00,2110
3/12/1966 12:00,2360
3/13/1966 12:00,2430
3/14/1966 12:00,2250
3/15/1966 12:00,1740
3/16/1966 12:00,1890
3/17/1966 12:00,2820
3/18/1966 12:00,1560
3/19/1966 12:00,1030
3/20/1966 12:00,620
3/21/1966 12:00,620
3/22/1966 12:00,530
3/23/1966 12:00,455
3/24/1966 12:00,440
3/25/1966 12:00,410
3/26/1966 12:00,1000
3/27/1966 12:00,520
3/28/1966 12:00,295
3/29/1966 12:00,281
3/30/1966 12:00,395
3/31/1966 12:00,1020
4/1/1966 12:00,970
4/2/1966 12:00,955
4/3/1966 12:00,949
4/4/1966 12:00,940
4/5/1966 12:00,910
4/6/1966 12:00,895
4/7/1966 12:00,95
4/8/1966 12:00,850
4/9/1966 12:00,790
4/10/1966 12:00,805
4/11/1966 12:00,820
4/12/1966 12:00,820
4/13/1966 12:00,799
4/14/1966 12:00,790
4/15/1966 12:00,775
4/16/1966 12:00,760
4/17/1966 12:00,760
4/18/1966 12:00,760
4/19/1966 12:00,775
4/20/1966 12:00,787
4/21/1966 12:00,814
4/22/1966 12:00,850
4/23/1966 12:00,844
4/24/1966 12:00,835
4/25/1966 12:00,832
4/26/1966 12:00,814
4/27/1966 12:00,799
4/28/1966 12:00,835
4/29/1966 12:00,895
4/30/1966 12:00,880
5/1/1966 12:00,870
5/2/1966 12:00,865
5/3/1966 12:00,844
5/4/1966 12:00,829
5/5/1966 12:00,820
5/6/1966 12:00,790
5/7/1966 12:00,790
5/8/1966 12:00,760
5/9/1966 12:00,736
5/10/1966 12:00,690
5/11/1966 12:00,690
5/12/1966 12:00,730
5/13/1966 12:00,754
5/14/1966 12:00,760
5/15/1966 12:00,760
5/16/1966 12:00,754
5/17/1966 12:00,745
5/18/1966 12:00,730
5/19/1966 12:00,715
5/20/1966 12:00,700
5/21/1966 12:00,690
5/22/1966 12:00,680
5/23/1966 12:00,680
5/24/1966 12:00,680
5/25/1966 12:00,670
5/26/1966 12:00,660
5/27/1966 12:00,650
5/28/1966 12:00,640
5/29/1966 12:00,620
5/30/1966 12:00,600
5/31/1966 12:00,590
6/1/1966 12:00,580
6/2/1966 12:00,560
6/3/1966 12:00,560
6/4/1966 12:00,556
6/5/1966 12:00,540
6/6/1966 12:00,520
6/7/1966 12:00,510
6/8/1966 12:00,492
6/9/1966 12:00,467
6/10/1966 12:00,455
6/11/1966 12:00,437
6/12/1966 12:00,425
6/13/1966 12:00,410
6/14/1966 12:00,395
6/15/1966 12:00,390
6/16/1966 12:00,387
6/17/1966 12:00,380
6/18/1966 12:00,362
6/19/1966 12:00,345
6/20/1966 12:00,336
6/21/1966 12:00,336
6/22/1966 12:00,329
6/23/1966 12:00,320
6/24/1966 12:00,329
6/25/1966 12:00,309
6/26/1966 12:00,306
6/27/1966 12:00,306
6/28/1966 12:00,384
6/29/1966 12:00,383
6/30/1966 12:00,357
7/1/1966 12:00,318
7/2/1966 12:00,291
7/3/1966 12:00,275
7/4/1966 12:00,261
7/5/1966 12:00,275
7/6/1966 12:00,261
7/7/1966 12:00,254
7/8/1966 12:00,257
7/9/1966 12:00,240
7/10/1966 12:00,228
7/11/1966 12:00,343
7/12/1966 12:00,220
7/13/1966 12:00,227
7/14/1966 12:00,236
7/15/1966 12:00,227
7/16/1966 12:00,216
7/17/1966 12:00,202
7/18/1966 12:00,196
7/19/1966 12:00,188
7/20/1966 12:00,182
7/21/1966 12:00,176
7/22/1966 12:00,171
7/23/1966 12:00,171
7/24/1966 12:00,169
7/25/1966 12:00,166
7/26/1966 12:00,160
7/27/1966 12:00,195
7/28/1966 12:00,171
7/29/1966 12:00,166
7/30/1966 12:00,166
7/31/1966 12:00,162
8/1/1966 12:00,159
8/2/1966 12:00,164
8/3/1966 12:00,167
8/4/1966 12:00,171
8/5/1966 12:00,162
8/6/1966 12:00,162
8/7/1966 12:00,160
8/8/1966 12:00,157
8/9/1966 12:00,157
8/10/1966 12:00,154
8/11/1966 12:00,152
8/12/1966 12:00,150
8/13/1966 12:00,150
8/14/1966 12:00,154
8/15/1966 12:00,159
8/16/1966 12:00,166
8/17/1966 12:00,166
8/18/1966 12:00,162
8/19/1966 12:00,157
8/20/1966 12:00,176
8/21/1966 12:00,206
8/22/1966 12:00,254
8/23/1966 12:00,298
8/24/1966 12:00,281
8/25/1966 12:00,254
8/26/1966 12:00,261
8/27/1966 12:00,234
8/28/1966 12:00,220
8/29/1966 12:00,200
8/30/1966 12:00,198
8/31/1966 12:00,190
9/1/1966 12:00,185
9/2/1966 12:00,183
9/3/1966 12:00,181
9/4/1966 12:00,181
9/5/1966 12:00,179
9/6/1966 12:00,176
9/7/1966 12:00,171
9/8/1966 12:00,166
9/9/1966 12:00,162
9/10/1966 12:00,159
9/11/1966 12:00,157
9/12/1966 12:00,154
9/13/1966 12:00,151
9/14/1966 12:00,162
9/15/1966 12:00,154
9/16/1966 12:00,154
9/17/1966 12:00,154
9/18/1966 12:00,149
9/19/1966 12:00,147
9/20/1966 12:00,145
9/21/1966 12:00,143
9/22/1966 12:00,138
9/23/1966 12:00,134
9/24/1966 12:00,134
9/25/1966 12:00,133
9/26/1966 12:00,133
9/27/1966 12:00,136
9/28/1966 12:00,135
9/29/1966 12:00,138
9/30/1966 12:00,138
10/1/1966 12:00,138
10/2/1966 12:00,135
10/3/1966 12:00,133
10/4/1966 12:00,138
10/5/1966 12:00,138
10/6/1966 12:00,136
10/7/1966 12:00,135
10/8/1966 12:00,131
10/9/1966 12:00,128
10/10/1966 12:00,126
10/11/1966 12:00,124
10/12/1966 12:00,124
10/13/1966 12:00,124
10/14/1966 12:00,143
10/15/1966 12:00,152
10/16/1966 12:00,157
10/17/1966 12:00,162
10/18/1966 12:00,171
10/19/1966 12:00,165
10/20/1966 12:00,160
10/21/1966 12:00,160
10/22/1966 12:00,154
10/23/1966 12:00,147
10/24/1966 12:00,143
10/25/1966 12:00,143
10/26/1966 12:00,143
10/27/1966 12:00,143
10/28/1966 12:00,143
10/29/1966 12:00,143
10/30/1966 12:00,141
10/31/1966 12:00,138
11/1/1966 12:00,138
11/2/1966 12:00,165
11/3/1966 12:00,133
11/4/1966 12:00,133
11/5/1966 12:00,138
11/6/1966 12:00,143
11/7/1966 12:00,143
11/8/1966 12:00,131
11/9/1966 12:00,185
11/10/1966 12:00,164
11/11/1966 12:00,162
11/12/1966 12:00,162
11/13/1966 12:00,158
11/14/1966 12:00,152
11/15/1966 12:00,155
11/16/1966 12:00,160
11/17/1966 12:00,164
11/18/1966 12:00,160
11/19/1966 12:00,161
11/20/1966 12:00,162
11/21/1966 12:00,164
11/22/1966 12:00,173
11/23/1966 12:00,181
11/24/1966 12:00,183
11/25/1966 12:00,185
11/26/1966 12:00,187
11/27/1966 12:00,190
11/28/1966 12:00,190
11/29/1966 12:00,162
11/30/1966 12:00,157
12/1/1966 12:00,138
12/2/1966 12:00,162
12/3/1966 12:00,164
12/4/1966 12:00,166
12/5/1966 12:00,171
12/6/1966 12:00,171
12/7/1966 12:00,171
12/8/1966 12:00,173
12/9/1966 12:00,176
12/10/1966 12:00,190
12/11/1966 12:00,216
12/12/1966 12:00,227
12/13/1966 12:00,230
12/14/1966 12:00,232
12/15/1966 12:00,234
12/16/1966 12:00,234
12/17/1966 12:00,227
12/18/1966 12:00,220
12/19/1966 12:00,206
12/20/1966 12:00,206
12/21/1966 12:00,206
12/22/1966 12:00,206
12/23/1966 12:00,206
12/24/1966 12:00,206
12/25/1966 12:00,206
12/26/1966 12:00,213
12/27/1966 12:00,220
12/28/1966 12:00,227
12/29/1966 12:00,230
12/30/1966 12:00,234
12/31/1966 12:00,234
1/1/1967 12:00,220
1/2/1967 12:00,216
1/3/1967 12:00,213
1/4/1967 12:00,213
1/5/1967 12:00,213
1/6/1967 12:00,213
1/7/1967 12:00,213
1/8/1967 12:00,213
1/9/1967 12:00,200
1/10/1967 12:00,190
1/11/1967 12:00,190
1/12/1967 12:00,195
1/13/1967 12:00,200
1/14/1967 12:00,202
1/15/1967 12:00,206
1/16/1967 12:00,213
1/17/1967 12:00,206
1/18/1967 12:00,202
1/19/1967 12:00,200
1/20/1967 12:00,197
1/21/1967 12:00,200
1/22/1967 12:00,206
1/23/1967 12:00,209
1/24/1967 12:00,213
1/25/1967 12:00,227
1/26/1967 12:00,240
1/27/1967 12:00,247
1/28/1967 12:00,247
1/29/1967 12:00,247
1/30/1967 12:00,247
1/31/1967 12:00,247
2/1/1967 12:00,250
2/2/1967 12:00,254
2/3/1967 12:00,257
2/4/1967 12:00,257
2/5/1967 12:00,261
2/6/1967 12:00,261
2/7/1967 12:00,264
2/8/1967 12:00,264
2/9/1967 12:00,264
2/10/1967 12:00,268
2/11/1967 12:00,268
2/12/1967 12:00,268
2/13/1967 12:00,269
2/14/1967 12:00,269
2/15/1967 12:00,269
2/16/1967 12:00,268
2/17/1967 12:00,268
2/18/1967 12:00,268
2/19/1967 12:00,268
2/20/1967 12:00,268
2/21/1967 12:00,268
2/22/1967 12:00,268
2/23/1967 12:00,268
2/24/1967 12:00,268
2/25/1967 12:00,275
2/26/1967 12:00,281
2/27/1967 12:00,295
2/28/1967 12:00,309
3/1/1967 12:00,322
3/2/1967 12:00,329
3/3/1967 12:00,343
3/4/1967 12:00,336
3/5/1967 12:00,329
3/6/1967 12:00,309
3/7/1967 12:00,295
3/8/1967 12:00,288
3/9/1967 12:00,281
3/10/1967 12:00,410
3/11/1967 12:00,530
3/12/1967 12:00,530
3/13/1967 12:00,462
3/14/1967 12:00,417
3/15/1967 12:00,402
3/16/1967 12:00,387
3/17/1967 12:00,372
3/18/1967 12:00,357
3/19/1967 12:00,357
3/20/1967 12:00,380
3/21/1967 12:00,395
3/22/1967 12:00,680
3/23/1967 12:00,660
3/24/1967 12:00,865
3/25/1967 12:00,1000
3/26/1967 12:00,850
3/27/1967 12:00,700
3/28/1967 12:00,660
3/29/1967 12:00,690
3/30/1967 12:00,1290
3/31/1967 12:00,1000
4/1/1967 12:00,660
4/2/1967 12:00,970
4/3/1967 12:00,940
4/4/1967 12:00,991
4/5/1967 12:00,970
4/6/1967 12:00,940
4/7/1967 12:00,895
4/8/1967 12:00,880
4/9/1967 12:00,890
4/10/1967 12:00,895
4/11/1967 12:00,865
4/12/1967 12:00,835
4/13/1967 12:00,820
4/14/1967 12:00,805
4/15/1967 12:00,805
4/16/1967 12:00,805
4/17/1967 12:00,790
4/18/1967 12:00,784
4/19/1967 12:00,784
4/20/1967 12:00,784
4/21/1967 12:00,784
4/22/1967 12:00,775
4/23/1967 12:00,760
4/24/1967 12:00,745
4/25/1967 12:00,721
4/26/1967 12:00,700
4/27/1967 12:00,680
4/28/1967 12:00,676
4/29/1967 12:00,670
4/30/1967 12:00,664
5/1/1967 12:00,660
5/2/1967 12:00,660
5/3/1967 12:00,650
5/4/1967 12:00,644
5/5/1967 12:00,600
5/6/1967 12:00,600
5/7/1967 12:00,600
5/8/1967 12:00,600
5/9/1967 12:00,590
5/10/1967 12:00,584
5/11/1967 12:00,580
5/12/1967 12:00,558
5/13/1967 12:00,550
5/14/1967 12:00,530
5/15/1967 12:00,514
5/16/1967 12:00,500
5/17/1967 12:00,470
5/18/1967 12:00,470
5/19/1967 12:00,455
5/20/1967 12:00,437
5/21/1967 12:00,428
5/22/1967 12:00,414
5/23/1967 12:00,410
5/24/1967 12:00,402
5/25/1967 12:00,387
5/26/1967 12:00,383
5/27/1967 12:00,363
5/28/1967 12:00,333
5/29/1967 12:00,322
5/30/1967 12:00,309
5/31/1967 12:00,309
6/1/1967 12:00,299
6/2/1967 12:00,287
6/3/1967 12:00,280
6/4/1967 12:00,270
6/5/1967 12:00,261
6/6/1967 12:00,261
6/7/1967 12:00,265
6/8/1967 12:00,247
6/9/1967 12:00,392
6/10/1967 12:00,400
6/11/1967 12:00,400
6/12/1967 12:00,387
6/13/1967 12:00,383
6/14/1967 12:00,482
6/15/1967 12:00,650
6/16/1967 12:00,1020
6/17/1967 12:00,1000
6/18/1967 12:00,900
6/19/1967 12:00,850
6/20/1967 12:00,820
6/21/1967 12:00,805
6/22/1967 12:00,760
6/23/1967 12:00,751
6/24/1967 12:00,700
6/25/1967 12:00,690
6/26/1967 12:00,680
6/27/1967 12:00,684
6/28/1967 12:00,670
6/29/1967 12:00,630
6/30/1967 12:00,600
7/1/1967 12:00,558
7/2/1967 12:00,570
7/3/1967 12:00,544
7/4/1967 12:00,510
7/5/1967 12:00,485
7/6/1967 12:00,462
7/7/1967 12:00,440
7/8/1967 12:00,432
7/9/1967 12:00,467
7/10/1967 12:00,437
7/11/1967 12:00,425
7/12/1967 12:00,395
7/13/1967 12:00,372
7/14/1967 12:00,350
7/15/1967 12:00,329
7/16/1967 12:00,317
7/17/1967 12:00,302
7/18/1967 12:00,292
7/19/1967 12:00,275
7/20/1967 12:00,264
7/21/1967 12:00,251
7/22/1967 12:00,238
7/23/1967 12:00,225
7/24/1967 12:00,213
7/25/1967 12:00,200
7/26/1967 12:00,195
7/27/1967 12:00,188
7/28/1967 12:00,185
7/29/1967 12:00,181
7/30/1967 12:00,176
7/31/1967 12:00,168
8/1/1967 12:00,165
8/2/1967 12:00,162
8/3/1967 12:00,158
8/4/1967 12:00,152
8/5/1967 12:00,147
8/6/1967 12:00,152
8/7/1967 12:00,159
8/8/1967 12:00,152
8/9/1967 12:00,145
8/10/1967 12:00,142
8/11/1967 12:00,138
8/12/1967 12:00,138
8/13/1967 12:00,136
8/14/1967 12:00,133
8/15/1967 12:00,131
8/16/1967 12:00,131
8/17/1967 12:00,128
8/18/1967 12:00,126
8/19/1967 12:00,126
8/20/1967 12:00,119
8/21/1967 12:00,114
8/22/1967 12:00,114
8/23/1967 12:00,114
8/24/1967 12:00,114
8/25/1967 12:00,114
8/26/1967 12:00,114
8/27/1967 12:00,124
8/28/1967 12:00,124
8/29/1967 12:00,124
8/30/1967 12:00,128
8/31/1967 12:00,122
9/1/1967 12:00,117
9/2/1967 12:00,116
9/3/1967 12:00,116
9/4/1967 12:00,116
9/5/1967 12:00,115
9/6/1967 12:00,110
9/7/1967 12:00,106
9/8/1967 12:00,101
9/9/1967 12:00,101
9/10/1967 12:00,106
9/11/1967 12:00,106
9/12/1967 12:00,106
9/13/1967 12:00,92
9/14/1967 12:00,92
9/15/1967 12:00,92
9/16/1967 12:00,92
9/17/1967 12:00,92
9/18/1967 12:00,96
9/19/1967 12:00,128
9/20/1967 12:00,134
9/21/1967 12:00,108
9/22/1967 12:00,102
9/23/1967 12:00,99
9/24/1967 12:00,95
9/25/1967 12:00,93
9/26/1967 12:00,91
9/27/1967 12:00,89
9/28/1967 12:00,87
9/29/1967 12:00,87
9/30/1967 12:00,86
10/1/1967 12:00,86
10/2/1967 12:00,84
10/3/1967 12:00,86
10/4/1967 12:00,86
10/5/1967 12:00,86
10/6/1967 12:00,86
10/7/1967 12:00,86
10/8/1967 12:00,95
10/9/1967 12:00,105
10/10/1967 12:00,103
10/11/1967 12:00,110
10/12/1967 12:00,105
10/13/1967 12:00,101
10/14/1967 12:00,99
10/15/1967 12:00,97
10/16/1967 12:00,96
10/17/1967 12:00,96
10/18/1967 12:00,94
10/19/1967 12:00,93
10/20/1967 12:00,93
10/21/1967 12:00,93
10/22/1967 12:00,93
10/23/1967 12:00,95
10/24/1967 12:00,95
10/25/1967 12:00,95
10/26/1967 12:00,95
10/27/1967 12:00,98
10/28/1967 12:00,97
10/29/1967 12:00,98
10/30/1967 12:00,99
10/31/1967 12:00,99
11/1/1967 12:00,97
11/2/1967 12:00,97
11/3/1967 12:00,97
11/4/1967 12:00,88
11/5/1967 12:00,78
11/6/1967 12:00,72
11/7/1967 12:00,90
11/8/1967 12:00,128
11/9/1967 12:00,113
11/10/1967 12:00,125
11/11/1967 12:00,135
11/12/1967 12:00,140
11/13/1967 12:00,151
11/14/1967 12:00,153
11/15/1967 12:00,113
11/16/1967 12:00,96
11/17/1967 12:00,93
11/18/1967 12:00,90
11/19/1967 12:00,100
11/20/1967 12:00,99
11/21/1967 12:00,87
11/22/1967 12:00,71
11/23/1967 12:00,70
11/24/1967 12:00,67
11/25/1967 12:00,60
11/26/1967 12:00,100
11/27/1967 12:00,118
11/28/1967 12:00,113
11/29/1967 12:00,96
11/30/1967 12:00,95
12/1/1967 12:00,95
12/2/1967 12:00,100
12/3/1967 12:00,100
12/4/1967 12:00,98
12/5/1967 12:00,104
12/6/1967 12:00,104
12/7/1967 12:00,109
12/8/1967 12:00,109
12/9/1967 12:00,113
12/10/1967 12:00,109
12/11/1967 12:00,113
12/12/1967 12:00,109
12/13/1967 12:00,102
12/14/1967 12:00,96
12/15/1967 12:00,94
12/16/1967 12:00,83
12/17/1967 12:00,75
12/18/1967 12:00,66
12/19/1967 12:00,71
12/20/1967 12:00,73
12/21/1967 12:00,75
12/22/1967 12:00,80
12/23/1967 12:00,90
12/24/1967 12:00,90
12/25/1967 12:00,94
12/26/1967 12:00,99
12/27/1967 12:00,99
12/28/1967 12:00,94
12/29/1967 12:00,95
12/30/1967 12:00,100
12/31/1967 12:00,105
1/1/1968 12:00,118
1/2/1968 12:00,113
1/3/1968 12:00,158
1/4/1968 12:00,170
1/5/1968 12:00,170
1/6/1968 12:00,170
1/7/1968 12:00,165
1/8/1968 12:00,146
1/9/1968 12:00,130
1/10/1968 12:00,137
1/11/1968 12:00,151
1/12/1968 12:00,160
1/13/1968 12:00,170
1/14/1968 12:00,180
1/15/1968 12:00,182
1/16/1968 12:00,180
1/17/1968 12:00,205
1/18/1968 12:00,182
1/19/1968 12:00,180
1/20/1968 12:00,180
1/21/1968 12:00,180
1/22/1968 12:00,175
1/23/1968 12:00,175
1/24/1968 12:00,191
1/25/1968 12:00,212
1/26/1968 12:00,212
1/27/1968 12:00,212
1/28/1968 12:00,212
1/29/1968 12:00,212
1/30/1968 12:00,212
1/31/1968 12:00,215
2/1/1968 12:00,212
2/2/1968 12:00,212
2/3/1968 12:00,212
2/4/1968 12:00,239
2/5/1968 12:00,228
2/6/1968 12:00,219
2/7/1968 12:00,227
2/8/1968 12:00,232
2/9/1968 12:00,232
2/10/1968 12:00,232
2/11/1968 12:00,239
2/12/1968 12:00,246